Home > Time Zones > World Clock > Weather > Japan > Kyoto > Past weeks

Flag for Japan Weather past 2 weeks in Kyoto, Japan

Now
79 °F

Warm.


Feels Like: 83 °F
Forecast: 71 / 88 °F
Wind: 8 mph from Southwest

Location: Osaka

Current Time: Aug 23, 2014 at 5:15:44 AM

Latest Report: Aug 23, 2014 at 4:00 AM


Visibility: N/A

Pressure: 29.87 "Hg

Humidity: 82%

Dew point: 73 °F

Location of KyotoLocation

Historic Weather in Kyoto — Graph

°F

Kyoto temperature yesterday

Maximum temperature yesterday: 89 °F (at 11:00 AM)
Minimum temperature yesterday: 82 °F (at 4:00 AM)
Average temperature yesterday: 84 °F

Past Weeks' High & Low Weather Summary

 TemperatureHumidityPressure
High92 °F (Aug 15, 12:00 PM)97% (Aug 9, 7:00 AM)30.00 "Hg (Aug 9, 7:00 AM)
Low71 °F (Aug 8, 9:00 PM)52% (Aug 21, 1:00 PM)29.03 "Hg (Aug 10, 11:00 AM)
Average83 °F74%29.77 "Hg
* Reported Aug 8 4:00 AM — Aug 23 4:00 AM, Kyoto, Weather by CustomWeather, © 2014

Note: Actual official high and low records may vary slightly from our data, if they occured in-between our weather recording intervals... More about our weather records

Advertising

Kyoto weather history for previous 24 hours

 ConditionsComfort  
Time TempWeatherWind HumidityBarometerVisibility
4:00 AM
Aug 23
79 °FWarm.8 mph82%29.87 "HgN/A
3:00 AM80 °FOvercast.7 mph83%29.87 "Hg12 mi
2:00 AM81 °FWarm.8 mph81%29.87 "HgN/A
1:00 AM81 °FWarm.8 mph79%29.88 "HgN/A
12:00 AM82 °FWarm.9 mph77%29.89 "HgN/A
11:00 PM
Aug 22
82 °FWarm.7 mph71%29.88 "HgN/A
10:00 PM82 °FWarm.6 mph68%29.86 "HgN/A
9:00 PM82 °FPassing clouds.9 mph78%29.87 "Hg12 mi
8:00 PM82 °FWarm.10 mph80%29.88 "HgN/A
7:00 PM83 °FWarm.5 mph70%29.85 "HgN/A
6:00 PM84 °FOvercast.5 mph66%29.84 "Hg19 mi
5:00 PM85 °FWarm.3 mph66%29.85 "HgN/A
4:00 PM84 °FWarm.6 mph66%29.84 "HgN/A
3:00 PM84 °FSprinkles. Overcast.8 mph56%29.84 "Hg16 mi
2:00 PM85 °FWarm.8 mph60%29.88 "HgN/A
1:00 PM85 °FWarm.12 mph69%29.90 "HgN/A
12:00 PM87 °FOvercast.14 mph63%29.90 "Hg19 mi
11:00 AM89 °FHot.N/A56%29.92 "HgN/A
10:00 AM89 °FHot.8 mph57%29.93 "HgN/A
9:00 AM87 °FOvercast.5 mph66%29.93 "Hg31 mi
8:00 AM85 °FWarm.8 mph68%29.93 "HgN/A
7:00 AM84 °FWarm.7 mph69%29.93 "HgN/A
6:00 AM83 °FOvercast.No wind70%29.91 "Hg31 mi
5:00 AM83 °FWarm.2 mph65%29.90 "HgN/A
Weather by CustomWeather, © 2014

See weather overviewHow to use our weather pages